Вернуться в каталог

MTCUBE-2

LostНаукаMEO
NORAD 53112·PAYLOAD·🇫🇷 France
Это название спутника еще не подтверждено официальными источниками.

Запущен Jul 13, 2022 с Guiana Space Centre

Loading…

Ближайшие Пролёты (ближайшие 24 часа)

TLE

УстаревшееSource: Space-Track

Эпоха: Oct 20, 2022, 01:13 UTC

1 53112U 22080H   22293.05099946 -.00000003  00000-0  00000+0 0  9997
2 53112  70.1502  43.1307 0006644 224.4624 135.5503  6.42556632  6211

Отслеживайте MTCUBE-2 в реальном времени с AllMySat

Download on the App Store